2021-03-23 00:07:38 r, 18.81m,0000000003Hz,0000183421c,0000000.398s, 015.1C,00002191
2021-03-23 00:17:37 r, 18.44m,0000000004Hz,0000130396c,0000000.283s, 014.8C,00002191
2021-03-23 00:27:36 r, 18.37m,0000000004Hz,0000122157c,0000000.265s, 014.8C,00002191
2021-03-23 00:37:37 r, 18.46m,0000000003Hz,0000132354c,0000000.287s, 014.8C,00002191
2021-03-23 00:47:37 r, 18.63m,0000000003Hz,0000155876c,0000000.338s, 014.5C,00002191
2021-03-23 00:57:36 r, 18.77m,0000000003Hz,0000176492c,0000000.383s, 014.5C,00002191
2021-03-23 01:07:37 r, 18.58m,0000000003Hz,0000148036c,0000000.321s, 014.5C,00002191
2021-03-23 01:17:37 r, 18.62m,0000000003Hz,0000153912c,0000000.334s, 014.5C,00002191
2021-03-23 01:27:36 r, 18.63m,0000000003Hz,0000156621c,0000000.340s, 014.5C,00002191
2021-03-23 01:37:37 r, 18.68m,0000000003Hz,0000163168c,0000000.354s, 014.5C,00002191
2021-03-23 01:47:38 r, 18.89m,0000000002Hz,0000197759c,0000000.429s, 014.5C,00002191
2021-03-23 01:57:36 r, 18.82m,0000000002Hz,0000184428c,0000000.400s, 014.5C,00002191
2021-03-23 02:07:38 r, 18.95m,0000000002Hz,0000208322c,0000000.452s, 014.5C,00002191
2021-03-23 02:17:37 r, 18.79m,0000000002Hz,0000180083c,0000000.391s, 014.5C,00002191
2021-03-23 02:27:36 r, 18.83m,0000000002Hz,0000187044c,0000000.406s, 014.5C,00002191
2021-03-23 02:37:38 r, 18.96m,0000000003Hz,0000209233c,0000000.454s, 014.5C,00002191
2021-03-23 02:47:36 r, 18.99m,0000000002Hz,0000216961c,0000000.471s, 014.5C,00002191
2021-03-23 02:57:36 r, 19.11m,0000000002Hz,0000237971c,0000000.516s, 014.5C,00002191
2021-03-23 03:07:36 r, 19.17m,0000000002Hz,0000252416c,0000000.548s, 014.5C,00002191
2021-03-23 03:17:38 r, 19.27m,0000000001Hz,0000278150c,0000000.604s, 014.5C,00002191
2021-03-23 03:27:36 r, 19.28m,0000000002Hz,0000282350c,0000000.613s, 014.8C,00002191
2021-03-23 03:37:37 r, 19.46m,0000000001Hz,0000330214c,0000000.717s, 014.8C,00002191
2021-03-23 03:47:36 r, 19.56m,0000000002Hz,0000361862c,0000000.785s, 015.1C,00002191
2021-03-23 03:57:36 r, 19.33m,0000000002Hz,0000293678c,0000000.637s, 015.1C,00002191
2021-03-23 04:07:38 r, 19.67m,0000000002Hz,0000400122c,0000000.868s, 015.1C,00002191
2021-03-23 04:17:37 r, 19.60m,0000000001Hz,0000378552c,0000000.822s, 015.1C,00002191
2021-03-23 04:27:36 r, 19.53m,0000000001Hz,0000354251c,0000000.769s, 015.4C,00002191
2021-03-23 04:37:38 r, 19.65m,0000000001Hz,0000392899c,0000000.853s, 015.4C,00002191
2021-03-23 04:47:36 r, 19.50m,0000000001Hz,0000342749c,0000000.744s, 015.7C,00002191
2021-03-23 04:57:36 r, 19.46m,0000000002Hz,0000331086c,0000000.719s, 015.7C,00002191
2021-03-23 05:07:36 r, 19.48m,0000000002Hz,0000336040c,0000000.729s, 015.7C,00002191
2021-03-23 05:17:37 r, 19.40m,0000000002Hz,0000312657c,0000000.679s, 015.7C,00002191
2021-03-23 05:27:36 r, 19.37m,0000000001Hz,0000306473c,0000000.665s, 015.7C,00002191
2021-03-23 05:37:37 r, 19.66m,0000000001Hz,0000398455c,0000000.865s, 015.7C,00002191
2021-03-23 05:47:36 r, 19.65m,0000000001Hz,0000393602c,0000000.854s, 015.7C,00002191
2021-03-23 05:57:36 r, 19.35m,0000000001Hz,0000300518c,0000000.652s, 015.4C,00002191
2021-03-23 06:07:36 r, 19.36m,0000000001Hz,0000301382c,0000000.654s, 015.4C,00002191
2021-03-23 06:17:38 r, 19.08m,0000000002Hz,0000234035c,0000000.508s, 015.4C,00002191
2021-03-23 06:27:36 r, 18.22m,0000000004Hz,0000106235c,0000000.231s, 015.4C,00002191
2021-03-23 06:37:38 r, 16.70m,0000000018Hz,0000026158c,0000000.057s, 015.1C,00002191
2021-03-23 06:47:37 r, 14.68m,0000000112Hz,0000004076c,0000000.009s, 015.1C,00002191
2021-03-23 06:57:36 r, 12.35m,0000000972Hz,0000000000c,0000000.000s, 015.1C,00002191
2021-03-23 07:07:38 r, 10.49m,0000005381Hz,0000000000c,0000000.000s, 014.8C,00002191
2021-03-23 07:17:36 r, 09.03m,0000020640Hz,0000000000c,0000000.000s, 014.8C,00002191
2021-03-23 07:27:36 r, 07.66m,0000073042Hz,0000000000c,0000000.000s, 014.8C,00002191
2021-03-23 07:37:36 r, 06.98m,0000136341Hz,0000000000c,0000000.000s, 015.1C,00002191
2021-03-23 07:47:37 r, 06.44m,0000224829Hz,0000000000c,0000000.000s, 015.1C,00002191
2021-03-23 07:57:36 r, 05.86m,0000383989Hz,0000000000c,0000000.000s, 015.4C,00002191
2021-03-23 08:07:37 r, 00.00m,0000597434Hz,0000000000c,0000000.000s, 015.7C,00002191
2021-03-23 08:17:37 r, 00.00m,0000597399Hz,0000000000c,0000000.000s, 016.1C,00002191
2021-03-23 08:27:36 r, 00.00m,0000597340Hz,0000000000c,0000000.000s, 016.1C,00002191
2021-03-23 08:37:36 r, 00.00m,0000597396Hz,0000000000c,0000000.000s, 016.7C,00002191
2021-03-23 08:47:38 r, 00.00m,0000597440Hz,0000000000c,0000000.000s, 016.7C,00002191
2021-03-23 08:57:36 r, 00.00m,0000597288Hz,0000000000c,0000000.000s, 017.4C,00002191
2021-03-23 09:07:38 r, 00.00m,0000597262Hz,0000000000c,0000000.000s, 017.7C,00002191
2021-03-23 09:17:36 r, 00.00m,0000597183Hz,0000000000c,0000000.000s, 018.3C,00002191
2021-03-23 09:27:36 r, 00.00m,0000597073Hz,0000000000c,0000000.000s, 019.0C,00002191
2021-03-23 09:37:37 r, 00.00m,0000596976Hz,0000000000c,0000000.000s, 019.9C,00002191
2021-03-23 09:47:37 r, 00.00m,0000596863Hz,0000000000c,0000000.000s, 020.9C,00002191
2021-03-23 09:57:36 r, 00.00m,0000596689Hz,0000000000c,0000000.000s, 021.9C,00002191
2021-03-23 10:07:37 r, 00.00m,0000596580Hz,0000000000c,0000000.000s, 023.2C,00002191
2021-03-23 10:17:37 r, 00.00m,0000596473Hz,0000000000c,0000000.000s, 023.8C,00002191
2021-03-23 10:27:36 r, 00.00m,0000596511Hz,0000000000c,0000000.000s, 023.5C,00002191
2021-03-23 10:37:37 r, 00.00m,0000596630Hz,0000000000c,0000000.000s, 023.8C,00002191
2021-03-23 10:47:38 r, 00.00m,0000596308Hz,0000000000c,0000000.000s, 025.1C,00002191
2021-03-23 10:57:36 r, 00.00m,0000596313Hz,0000000000c,0000000.000s, 025.4C,00002191
2021-03-23 11:07:38 r, 00.00m,0000596338Hz,0000000000c,0000000.000s, 025.1C,00002191
2021-03-23 11:17:37 r, 00.00m,0000596346Hz,0000000000c,0000000.000s, 025.1C,00002191
2021-03-23 11:27:36 r, 00.00m,0000596221Hz,0000000000c,0000000.000s, 026.4C,00002191
2021-03-23 11:37:38 r, 00.00m,0000595858Hz,0000000000c,0000000.000s, 029.0C,00002191
2021-03-23 11:47:37 r, 00.00m,0000595850Hz,0000000000c,0000000.000s, 029.9C,00002191
2021-03-23 11:57:36 r, 00.00m,0000595957Hz,0000000000c,0000000.000s, 028.6C,00002191
2021-03-23 12:07:37 r, 00.00m,0000596031Hz,0000000000c,0000000.000s, 028.0C,00002191
2021-03-23 12:17:37 r, 00.00m,0000595962Hz,0000000000c,0000000.000s, 028.0C,00002191
2021-03-23 12:27:36 r, 00.00m,0000595994Hz,0000000000c,0000000.000s, 027.7C,00002191
2021-03-23 12:37:37 r, 00.00m,0000596016Hz,0000000000c,0000000.000s, 027.3C,00002191
2021-03-23 12:47:37 r, 00.00m,0000595728Hz,0000000000c,0000000.000s, 029.0C,00002191
2021-03-23 12:57:36 r, 00.00m,0000595848Hz,0000000000c,0000000.000s, 028.6C,00002191
2021-03-23 13:07:37 r, 00.00m,0000595888Hz,0000000000c,0000000.000s, 028.0C,00002191
2021-03-23 13:17:38 r, 00.00m,0000596022Hz,0000000000c,0000000.000s, 028.0C,00002191
2021-03-23 13:27:36 r, 00.00m,0000596031Hz,0000000000c,0000000.000s, 027.7C,00002191
2021-03-23 13:37:38 r, 00.00m,0000596141Hz,0000000000c,0000000.000s, 026.7C,00002191
2021-03-23 13:47:37 r, 00.00m,0000595981Hz,0000000000c,0000000.000s, 028.0C,00002191
2021-03-23 13:57:36 r, 00.00m,0000595934Hz,0000000000c,0000000.000s, 027.0C,00002191
2021-03-23 14:07:38 r, 00.00m,0000595873Hz,0000000000c,0000000.000s, 028.0C,00002191
2021-03-23 14:17:37 r, 00.00m,0000595776Hz,0000000000c,0000000.000s, 028.3C,00002191
2021-03-23 14:27:36 r, 00.00m,0000595862Hz,0000000000c,0000000.000s, 028.0C,00002191
2021-03-23 14:37:37 r, 00.00m,0000595767Hz,0000000000c,0000000.000s, 028.6C,00002191
2021-03-23 14:47:38 r, 00.00m,0000596078Hz,0000000000c,0000000.000s, 026.7C,00002191
2021-03-23 14:57:36 r, 00.00m,0000596327Hz,0000000000c,0000000.000s, 025.1C,00002191
2021-03-23 15:07:37 r, 00.00m,0000596261Hz,0000000000c,0000000.000s, 024.8C,00002191
2021-03-23 15:17:37 r, 00.00m,0000596204Hz,0000000000c,0000000.000s, 025.4C,00002191
2021-03-23 15:27:36 r, 00.00m,0000596274Hz,0000000000c,0000000.000s, 025.1C,00002191
2021-03-23 15:37:38 r, 00.00m,0000596029Hz,0000000000c,0000000.000s, 026.4C,00002191
2021-03-23 15:47:37 r, 00.00m,0000595754Hz,0000000000c,0000000.000s, 028.6C,00002191
2021-03-23 15:57:36 r, 00.00m,0000595910Hz,0000000000c,0000000.000s, 028.0C,00002191
2021-03-23 16:07:38 r, 00.00m,0000596138Hz,0000000000c,0000000.000s, 026.1C,00002191
2021-03-23 16:17:37 r, 00.00m,0000596429Hz,0000000000c,0000000.000s, 024.1C,00002191
2021-03-23 16:27:36 r, 00.00m,0000596630Hz,0000000000c,0000000.000s, 022.5C,00002191
2021-03-23 16:37:36 r, 00.00m,0000596538Hz,0000000000c,0000000.000s, 021.9C,00002191
2021-03-23 16:47:38 r, 00.00m,0000596646Hz,0000000000c,0000000.000s, 021.2C,00002191
2021-03-23 16:57:37 r, 00.00m,0000596848Hz,0000000000c,0000000.000s, 020.3C,00002191
2021-03-23 17:07:36 r, 00.00m,0000596868Hz,0000000000c,0000000.000s, 019.0C,00002191
2021-03-23 17:17:39 r, 00.00m,0000597026Hz,0000000000c,0000000.000s, 018.6C,00002191
2021-03-23 17:27:37 r, 00.00m,0000597088Hz,0000000000c,0000000.000s, 017.7C,00002191
2021-03-23 17:37:36 r, 00.00m,0000597172Hz,0000000000c,0000000.000s, 017.0C,00002191
2021-03-23 17:47:38 r, 00.00m,0000597179Hz,0000000000c,0000000.000s, 016.4C,00002191
2021-03-23 17:57:37 r, 00.00m,0000597323Hz,0000000000c,0000000.000s, 015.7C,00002191
2021-03-23 18:07:36 r, 00.00m,0000597389Hz,0000000000c,0000000.000s, 015.4C,00002191
2021-03-23 18:17:37 r, 00.00m,0000597400Hz,0000000000c,0000000.000s, 015.1C,00002191
2021-03-23 18:27:37 r, 00.00m,0000597346Hz,0000000000c,0000000.000s, 015.1C,00002191
2021-03-23 18:37:36 r, 00.00m,0000597378Hz,0000000000c,0000000.000s, 014.8C,00002191
2021-03-23 18:47:37 r, 00.00m,0000597400Hz,0000000000c,0000000.000s, 014.5C,00002191
2021-03-23 18:57:37 r, 00.00m,0000437065Hz,0000000000c,0000000.000s, 014.1C,00002191
2021-03-23 19:07:36 r, 06.11m,0000305553Hz,0000000000c,0000000.000s, 013.5C,00002191
2021-03-23 19:17:37 r, 06.36m,0000241213Hz,0000000000c,0000000.000s, 013.2C,00002191
2021-03-23 19:27:38 r, 07.09m,0000123031Hz,0000000000c,0000000.000s, 013.2C,00002191
2021-03-23 19:37:36 r, 07.98m,0000054159Hz,0000000000c,0000000.000s, 012.8C,00002191
2021-03-23 19:47:38 r, 08.53m,0000032920Hz,0000000000c,0000000.000s, 012.5C,00002191
2021-03-23 19:57:37 r, 09.75m,0000010661Hz,0000000000c,0000000.000s, 012.5C,00002191
2021-03-23 20:07:36 r, 11.82m,0000001578Hz,0000000000c,0000000.000s, 012.2C,00002191
2021-03-23 20:17:37 r, 13.79m,0000000259Hz,0000000000c,0000000.000s, 012.2C,00002191
2021-03-23 20:27:37 r, 15.84m,0000000039Hz,0000011924c,0000000.026s, 012.2C,00002191
2021-03-23 20:37:36 r, 17.48m,0000000009Hz,0000053856c,0000000.117s, 011.9C,00002191
2021-03-23 20:47:37 r, 17.93m,0000000006Hz,0000081814c,0000000.178s, 011.9C,00002191
2021-03-23 20:57:37 r, 18.00m,0000000006Hz,0000087049c,0000000.189s, 011.9C,00002191
2021-03-23 21:07:36 r, 18.05m,0000000005Hz,0000091069c,0000000.198s, 011.9C,00002191
2021-03-23 21:17:37 r, 18.07m,0000000005Hz,0000093139c,0000000.202s, 011.9C,00002191
2021-03-23 21:27:38 r, 18.14m,0000000005Hz,0000098428c,0000000.214s, 011.6C,00002191
2021-03-23 21:37:36 r, 18.11m,0000000004Hz,0000096211c,0000000.209s, 011.6C,00002191
2021-03-23 21:47:39 r, 18.17m,0000000004Hz,0000101569c,0000000.220s, 011.6C,00002191
2021-03-23 21:57:37 r, 18.15m,0000000004Hz,0000100136c,0000000.217s, 011.6C,00002191
2021-03-23 22:07:36 r, 18.06m,0000000005Hz,0000092067c,0000000.200s, 011.6C,00002191
2021-03-23 22:17:38 r, 17.95m,0000000006Hz,0000083267c,0000000.181s, 011.6C,00002191
2021-03-23 22:27:37 r, 17.98m,0000000005Hz,0000085415c,0000000.185s, 011.2C,00002191
2021-03-23 22:37:36 r, 18.17m,0000000004Hz,0000101163c,0000000.220s, 011.2C,00002191
2021-03-23 22:47:37 r, 18.05m,0000000006Hz,0000090722c,0000000.197s, 011.2C,00002191
2021-03-23 22:57:37 r, 18.09m,0000000005Hz,0000094446c,0000000.205s, 011.2C,00002191
2021-03-23 23:07:36 r, 18.25m,0000000004Hz,0000108216c,0000000.235s, 010.9C,00002191
2021-03-23 23:17:37 r, 18.42m,0000000004Hz,0000126906c,0000000.275s, 010.9C,00002191
2021-03-23 23:27:37 r, 18.42m,0000000004Hz,0000127439c,0000000.277s, 010.9C,00002191
2021-03-23 23:37:36 r, 18.39m,0000000004Hz,0000123825c,0000000.269s, 010.9C,00002191
2021-03-23 23:47:37 r, 18.40m,0000000003Hz,0000124100c,0000000.269s, 010.9C,00002191
2021-03-23 23:57:38 r, 18.42m,0000000003Hz,0000127459c,0000000.277s, 010.9C,00002191
